EW5462 Weather Reports


Display with metric or nautical units.
time (UTC)temp
F
wind
direction
speed
MPH
gust
MPH
rain 1hr
in
rain 24hr
in
rain mn
in
humidity
%
barometer
mb
20260904092116 86 0.0 0.0 0.00 0.00 0.00 28 1005.9
20260904091117 86 0.0 0.0 0.00 0.00 0.00 29 1006.0
20260904090416 86 0.0 0.0 0.00 0.00 0.00 34 1006.0
20260904085416 86 0.0 0.0 0.00 0.00 0.00 37 1006.0
20260904084417 86 266 0.0 0.0 0.00 0.00 0.00 46 1006.0
20260904083416 86 0.0 0.0 0.00 0.00 0.00 45 1006.2
20260904082417 85 0.0 0.0 0.00 0.00 0.00 65 1006.2
20260904081417 86 0.0 0.0 0.00 0.00 0.00 67 1006.2
20260904080417 86 0.0 0.0 0.00 0.00 0.00 67 1006.2
20260904075416 86 0.0 0.0 0.00 0.00 0.00 66 1006.2
20260904074416 86 195 0.0 2.0 0.00 0.00 0.00 66 1006.3
20260904073417 86 181 3.0 5.0 0.00 0.00 0.00 65 1006.4
20260904072417 87 167 3.0 7.0 0.00 0.00 0.00 64 1006.4
20260904071416 86 177 1.0 6.0 0.00 0.00 0.00 55 1006.4
20260904070417 87 0.0 0.0 0.00 0.00 0.00 57 1006.5
20260904065417 87 0.0 0.0 0.00 0.00 0.00 58 1006.5
20260904064417 87 187 2.0 5.0 0.00 0.00 0.00 57 1006.4
20260904063416 88 167 3.0 6.0 0.00 0.00 0.00 54 1006.4
20260904062417 88 156 1.0 5.0 0.00 0.00 0.00 52 1006.5
20260904061417 89 177 6.0 8.0 0.00 0.00 0.00 51 1006.4
20260904060417 89 0.0 0.0 0.00 0.00 0.00 37 1006.5
20260904055418 90 0.0 0.0 0.00 0.00 0.00 44 1006.5
20260904054416 91 0.0 0.0 0.00 0.00 0.00 38 1006.4
20260904053417 91 0.0 0.0 0.00 0.00 0.00 25 1006.4
20260904053317 91 278 4.0 5.0 0.00 0.00 0.00 25 1006.5
20260904052316 89 0.0 0.0 0.00 0.00 0.00 50 1006.5
20260904051317 90 240 1.0 5.0 0.00 0.00 0.00 49 1006.3
20260904050317 90 0.0 0.0 0.00 0.00 0.00 47 1006.1
20260904045516 91 223 2.0 3.0 0.00 0.00 0.00 46 1006.1
20260904044517 91 222 4.0 6.0 0.00 0.00 0.00 45 1006.0
20260904043517 91 227 3.0 3.0 0.00 0.00 0.00 41 1006.0
20260904042717 91 221 1.0 4.0 0.00 0.00 0.00 38 1005.9
20260904041717 91 218 1.0 4.0 0.00 0.00 0.00 28 1005.7
20260904040717 92 221 3.0 5.0 0.00 0.00 0.00 22 1005.6
20260904035716 92 215 3.0 5.0 0.00 0.00 0.00 14 1005.4
20260904034717 93 229 0.0 1.0 0.00 0.00 0.00 12 1005.4
20260904033716 93 209 0.0 2.0 0.00 0.00 0.00 12 1005.3
20260904032717 93 210 1.0 3.0 0.00 0.00 0.00 12 1005.1
20260904031717 94 209 0.0 1.0 0.00 0.00 0.00 13 1004.9
20260904030717 93 0.0 0.0 0.00 0.00 0.00 13 1004.7
20260904025717 95 0.0 0.0 0.00 0.00 0.00 12 1004.5
20260904024716 95 0.0 0.0 0.00 0.00 0.00 12 1004.5
20260904023717 96 0.0 0.0 0.00 0.00 0.00 12 1004.3
20260904022716 97 0.0 0.0 0.00 0.00 0.00 11 1004.2
20260904021716 98 0.0 0.0 0.00 0.00 0.00 10 1004.1
20260904020717 99 0.0 0.0 0.00 0.00 0.00 10 1004.1
20260904015716 99 0.0 0.0 0.00 0.00 0.00 10 1004.0
20260904014717 100 305 2.0 4.0 0.00 0.00 0.00 10 1004.0
20260904013716 100 296 4.0 7.0 0.00 0.00 0.00 10 1004.0
20260904012717 101 310 5.0 8.0 0.00 0.00 0.00 9 1004.0
20260904011716 102 277 5.0 7.0 0.00 0.00 0.00 9 1004.0
20260904010716 103 292 3.0 5.0 0.00 0.00 0.00 10 1003.9
20260904005717 103 286 1.0 3.0 0.00 0.00 0.00 11 1003.9
20260904005316 104 276 6.0 7.0 0.00 0.00 0.00 11 1003.9
20260904004317 104 296 7.0 8.0 0.00 0.00 0.00 10 1003.9
20260904003316 105 257 3.0 7.0 0.00 0.00 0.00 10 1003.9
20260904002317 104 253 7.0 8.0 0.00 0.00 0.00 10 1004.0
20260904001317 105 246 7.0 8.0 0.00 0.00 0.00 11 1004.0
20260904000417 104 278 5.0 7.0 0.00 0.00 0.00 9 1004.1
20260903235416 104 287 7.0 10.0 0.00 0.00 0.00 9 1004.2
20260903234417 105 255 7.0 11.0 0.00 0.00 0.00 10 1004.3
20260903233417 105 241 6.0 8.0 0.00 0.00 0.00 12 1004.3
20260903232417 104 255 9.0 12.0 0.00 0.00 0.00 14 1004.4
20260903231416 104 246 9.0 14.0 0.00 0.00 0.00 14 1004.5
20260903230417 104 256 7.0 10.0 0.00 0.00 0.00 15 1004.6
20260903225416 104 252 9.0 11.0 0.00 0.00 0.00 14 1004.7
20260903224416 104 244 4.0 9.0 0.00 0.00 0.00 15 1004.8
20260903223417 105 237 6.0 9.0 0.00 0.00 0.00 15 1005.0
20260903222817 105 266 7.0 10.0 0.00 0.00 0.00 15 1005.0
20260903221817 105 262 7.0 12.0 0.00 0.00 0.00 15 1005.2
20260903220817 104 251 6.0 10.0 0.00 0.00 0.00 15 1005.3
20260903215816 105 240 7.0 11.0 0.00 0.00 0.00 15 1005.5
20260903214816 105 250 11.0 13.0 0.00 0.00 0.00 16 1005.6
20260903213817 104 243 8.0 10.0 0.00 0.00 0.00 15 1005.8
20260903212816 104 232 3.0 6.0 0.00 0.00 0.00 15 1006.0
20260903211817 103 241 5.0 12.0 0.00 0.00 0.00 15 1006.1
20260903210817 105 224 10.0 13.0 0.00 0.00 0.00 16 1006.2
20260903205817 104 238 8.0 12.0 0.00 0.00 0.00 16 1006.4
20260903204816 104 239 6.0 13.0 0.00 0.00 0.00 17 1006.5
20260903203817 103 238 7.0 10.0 0.00 0.00 0.00 18 1006.6
20260903202817 102 221 2.0 4.0 0.00 0.00 0.00 20 1006.7
20260903201816 103 224 9.0 11.0 0.00 0.00 0.00 20 1006.9
20260903200817 102 250 7.0 11.0 0.00 0.00 0.00 21 1007.0
20260903195817 102 243 5.0 7.0 0.00 0.00 0.00 21 1007.1
20260903194816 101 255 3.0 7.0 0.00 0.00 0.00 22 1007.3
20260903193817 101 230 6.0 9.0 0.00 0.00 0.00 20 1007.4
20260903192817 101 257 7.0 9.0 0.00 0.00 0.00 23 1007.5
20260903191816 102 215 6.0 13.0 0.00 0.00 0.00 21 1007.7
20260903190816 100 212 0.0 4.0 0.00 0.00 0.00 25 1007.9
20260903185817 102 204 5.0 11.0 0.00 0.00 0.00 22 1008.1
20260903184817 101 212 6.0 8.0 0.00 0.00 0.00 26 1008.2
20260903183817 100 240 6.0 9.0 0.00 0.00 0.00 27 1008.4
20260903182817 100 224 7.0 10.0 0.00 0.00 0.00 28 1008.5
20260903181816 100 213 0.0 3.0 0.00 0.00 0.00 29 1008.7
20260903180817 99 221 3.0 7.0 0.00 0.00 0.00 31 1008.7
20260903175817 99 218 6.0 11.0 0.00 0.00 0.00 29 1008.9
20260903174817 96 0.0 0.0 0.00 0.00 0.00 27 1009.0
20260903173817 98 0.0 0.0 0.00 0.00 0.00 27 1009.1
20260903173516 97 216 4.0 6.0 0.00 0.00 0.00 22 1009.1
20260903172517 96 305 5.0 6.0 0.00 0.00 0.00 20 1009.1
20260903171517 95 0.0 0.0 0.00 0.00 0.00 19 1009.2
20260903170517 95 225 0.0 2.0 0.00 0.00 0.00 16 1009.2
20260903165517 94 294 2.0 5.0 0.00 0.00 0.00 13 1009.2
20260903165317 95 279 2.0 5.0 0.00 0.00 0.00 14 1009.2
20260903164817 95 281 1.0 3.0 0.00 0.00 0.00 14 1009.2
20260903163816 95 0.0 0.0 0.00 0.00 0.00 19 1009.2
20260903162817 93 0.0 0.0 0.00 0.00 0.00 12 1009.2
20260903161816 93 0.0 0.0 0.00 0.00 0.00 10 1009.2
20260903160817 93 0.0 0.0 0.00 0.00 0.00 11 1009.4
20260903155817 92 54 0.0 1.0 0.00 0.00 0.00 11 1009.5
20260903154817 92 0.0 0.0 0.00 0.00 0.00 12 1009.5
20260903153816 91 18 0.0 0.0 0.00 0.00 0.00 12 1009.5
20260903152817 91 0.0 0.0 0.00 0.00 0.00 14 1009.6
20260903151816 88 0.0 0.0 0.00 0.00 0.00 14 1009.6
20260903150817 88 0.0 0.0 0.00 0.00 0.00 18 1009.6
20260903145817 88 0.0 0.0 0.00 0.00 0.00 17 1009.6
20260903144817 87 0.0 0.0 0.00 0.00 0.00 18 1009.7
20260903143817 85 0.0 0.0 0.00 0.00 0.00 18 1009.8
20260903142816 84 173 0.0 0.0 0.00 0.00 0.00 18 1009.7
20260903141817 83 0.0 0.0 0.00 0.00 0.00 19 1009.7
20260903140816 82 91 0.0 0.0 0.00 0.00 0.00 20 1009.7
20260903135817 81 101 0.0 0.0 0.00 0.00 0.00 20 1009.6
20260903134817 79 0.0 0.0 0.00 0.00 0.00 21 1009.5
20260903133816 79 130 3.0 4.0 0.00 0.00 0.00 22 1009.4
20260903132817 78 0.0 0.0 0.00 0.00 0.00 25 1009.3
20260903131816 80 0.0 0.0 0.00 0.00 0.00 24 1009.2
20260903130817 80 0.0 0.0 0.00 0.00 0.00 24 1009.1
20260903130117 79 0.0 0.0 0.00 0.00 0.00 23 1009.1
20260903125116 79 0.0 0.0 0.00 0.00 0.00 24 1009.1
20260903124117 81 0.0 0.0 0.00 0.00 0.00 21 1009.2
20260903123116 80 0.0 0.0 0.00 0.00 0.00 20 1009.2
20260903122117 80 0.0 0.0 0.00 0.00 0.00 20 1009.1
20260903121917 81 0.0 0.0 0.00 0.00 0.00 20 1009.1
20260903120916 81 0.0 0.0 0.00 0.00 0.00 21 1009.1
20260903120417 81 0.0 0.0 0.00 0.00 0.00 20 1009.1
20260903115417 81 0.0 0.0 0.00 0.00 0.00 21 1009.1
20260903114417 82 0.0 0.0 0.00 0.00 0.00 20 1009.0
20260903113817 83 0.0 0.0 0.00 0.00 0.00 19 1008.9
20260903113316 83 0.0 0.0 0.00 0.00 0.00 18 1008.9
20260903112317 83 0.0 0.0 0.00 0.00 0.00 18 1009.1
20260903111316 82 0.0 0.0 0.00 0.00 0.00 19 1008.9
20260903110317 83 0.0 0.0 0.00 0.00 0.00 19 1008.8
20260903105316 83 0.0 0.0 0.00 0.00 0.00 18 1008.8
20260903104317 83 0.0 0.0 0.00 0.00 0.00 19 1008.9
20260903104117 82 314 0.0 0.0 0.00 0.00 0.00 19 1008.9
20260903103117 81 20 0.0 0.0 0.00 0.00 0.00 23 1009.0
20260903102116 83 0.0 0.0 0.00 0.00 0.00 19 1009.0
20260903101117 83 0.0 0.0 0.00 0.00 0.00 18 1008.9
20260903100116 83 0.0 0.0 0.00 0.00 0.00 18 1008.9
20260903095117 83 260 0.0 0.0 0.00 0.00 0.00 17 1008.9
20260903094116 82 0.0 0.0 0.00 0.00 0.00 19 1008.9
20260903093117 84 0.0 0.0 0.00 0.00 0.00 17 1008.8